FW4154 Weather Reports


time (UTC)temp
C
wind
direction
speed
KPH
gust
KPH
rain 1hr
cm
rain 24hr
cm
rain mn
cm
humidity
%
barometer
mb
20260507062846 12 144 8.0 17.7 0.00 0.00 0.00 89 1000.2
20260507061857 12 146 9.7 16.1 0.00 0.00 0.00 89 1000.2
20260507060853 13 133 11.3 14.5 0.00 0.00 0.00 89 1000.2
20260507060347 13 155 9.7 14.5 0.00 0.00 0.00 88 1000.2
20260507055842 13 147 8.0 14.5 0.00 0.00 0.00 88 1000.2
20260507055341 13 131 8.0 14.5 0.00 0.00 0.00 88 1000.2
20260507054356 13 117 6.4 12.9 0.00 0.00 0.00 87 1000.2
20260507053354 13 133 4.8 11.3 0.00 0.00 0.00 87 1000.2
20260507052847 13 122 4.8 11.3 0.00 0.00 0.00 87 1000.2
20260507051858 13 143 4.8 8.0 0.00 0.00 0.00 86 1000.2
20260507050855 13 144 3.2 12.9 0.00 0.00 0.00 86 1000.2
20260507050338 13 124 4.8 14.5 0.00 0.00 0.00 86 1000.2
20260507045356 13 127 4.8 11.3 0.00 0.00 0.00 85 1000.2
20260507044352 13 111 1.6 12.9 0.00 0.00 0.00 85 1000.2
20260507043847 13 113 6.4 14.5 0.00 0.00 0.00 84 1000.2
20260507042845 13 134 6.4 14.5 0.00 0.00 0.00 84 1000.2
20260507041858 13 154 8.0 14.5 0.00 0.00 0.00 84 1000.2
20260507040852 13 157 9.7 12.9 0.00 0.00 0.00 87 1000.2
20260507035854 13 145 6.4 8.0 0.00 0.00 0.00 87 1000.2
20260507035356 13 232 0.0 0.0 0.00 0.00 0.00 85 1000.2
20260507034402 13 232 0.0 0.0 0.00 0.00 0.00 85 1000.2
20260507033852 13 232 0.0 0.0 0.00 0.00 0.00 86 1000.2
20260507033348 13 232 0.0 0.0 0.00 0.00 0.00 86 1000.2
20260507032357 13 232 0.0 0.0 0.00 0.00 0.00 84 1000.2
20260507031850 13 232 0.0 0.0 0.00 0.00 0.00 84 1000.2
20260507031350 13 232 0.0 0.0 0.00 0.00 0.00 84 1000.2
20260507030842 13 232 0.0 0.0 0.00 0.00 0.00 84 1000.2
20260507025907 13 169 0.0 0.0 0.00 0.00 0.00 83 1000.2
20260507025354 13 169 0.0 3.2 0.00 0.00 0.00 83 1000.2
20260507024336 13 169 1.6 4.8 0.00 0.00 0.00 82 1000.2
20260507023348 13 169 1.6 4.8 0.00 0.00 0.00 83 1000.2
20260507022845 13 169 0.0 6.4 0.00 0.00 0.00 82 1000.2
20260507021847 14 167 8.0 11.3 0.00 0.00 0.00 84 1000.2
20260507020856 13 159 6.4 11.3 0.00 0.00 0.00 84 1000.2
20260507015852 13 177 3.2 9.7 0.00 0.00 0.00 83 1000.2
20260507014858 13 186 6.4 9.7 0.00 0.00 0.00 84 1000.2
20260507013841 13 186 6.4 11.3 0.00 0.00 0.00 85 1000.2
20260507013045 13 197 8.0 12.9 0.00 0.00 0.00 85 1000.2
20260507011849 13 171 6.4 11.3 0.00 0.00 0.00 86 1000.2
20260507011338 13 174 8.0 12.9 0.00 0.00 0.00 85 1000.2
20260507010356 13 130 12.9 17.7 0.00 0.00 0.00 84 1000.2
20260507005851 13 143 8.0 14.5 0.00 0.00 0.00 84 1000.2
20260507005349 13 144 4.8 14.5 0.00 0.00 0.00 83 1000.2
20260507004357 13 144 9.7 16.1 0.00 0.00 0.00 85 1000.2
20260507003851 13 148 11.3 16.1 0.00 0.00 0.00 83 1000.2
20260507003348 13 142 11.3 17.7 0.00 0.00 0.00 84 1000.2
20260507002352 13 160 11.3 17.7 0.00 0.00 0.00 84 1000.2
20260507001348 13 144 11.3 19.3 0.00 0.00 0.00 84 1000.2
20260507000350 13 158 12.9 16.1 0.00 0.00 0.00 85 1000.2
20260506235844 13 186 14.5 16.1 0.00 0.00 0.00 84 1000.2
20260506235338 13 158 14.5 17.7 0.00 0.00 0.00 84 1000.2
20260506234347 13 198 12.9 17.7 0.00 0.00 0.00 84 1000.2
20260506233350 13 195 14.5 17.7 0.00 0.00 0.00 84 1000.2
20260506232847 13 184 14.5 17.7 0.00 0.00 0.00 83 1000.2
20260506231850 13 181 12.9 16.1 0.00 0.00 0.00 83 1000.2
20260506230352 13 220 12.9 20.9 0.00 0.00 0.00 81 1000.2
20260506225357 14 159 17.7 24.1 0.00 0.00 0.00 82 1000.2
20260506224844 14 163 14.5 27.4 0.00 0.00 0.00 82 1000.2
20260506223840 14 161 17.7 24.1 0.00 0.00 0.00 80 1000.2
20260506222859 14 153 16.1 25.7 0.00 0.00 0.00 80 1000.2
20260506222349 14 137 12.9 25.7 0.00 0.00 0.00 80 1000.2
20260506221348 14 157 16.1 24.1 0.00 0.00 0.00 80 1000.2
20260506220845 14 155 12.9 19.3 0.00 0.00 0.00 83 1000.2
20260506220344 14 176 16.1 17.7 0.00 0.00 0.00 82 1000.2
20260506215358 13 158 12.9 20.9 0.00 0.00 0.00 81 1000.2
20260506214355 13 153 16.1 24.1 0.00 0.00 0.00 82 1000.2
20260506213851 13 148 17.7 22.5 0.00 0.00 0.00 82 1000.2
20260506212900 13 155 19.3 25.7 0.00 0.00 0.00 82 1000.2
20260506212357 13 200 19.3 24.1 0.00 0.00 0.00 83 1000.2
20260506211342 14 177 14.5 20.9 0.00 0.00 0.00 83 1000.2
20260506210354 13 162 14.5 17.7 0.00 0.00 0.00 82 1000.2
20260506205344 13 156 16.1 19.3 0.00 0.00 0.00 83 1000.2
20260506204348 13 147 4.8 22.5 0.00 0.00 0.00 81 1000.2
20260506203840 13 127 11.3 22.5 0.00 0.00 0.00 84 1000.2
20260506202858 13 149 6.4 17.7 0.00 0.00 0.00 85 1000.2
20260506201854 13 123 4.8 12.9 0.00 0.00 0.00 85 1000.2
20260506200840 13 132 8.0 14.5 0.00 0.00 0.00 86 1000.2
20260506195845 13 125 8.0 12.9 0.00 0.00 0.00 86 1000.2
20260506194848 13 147 4.8 11.3 0.00 0.00 0.00 86 1000.2
20260506193849 12 168 8.0 11.3 0.00 0.00 0.00 86 1000.2
20260506192854 12 130 4.8 9.7 0.00 0.00 0.00 90 1000.2
20260506191851 12 103 6.4 14.5 0.00 0.00 0.00 90 1000.2
20260506190858 12 134 9.7 14.5 0.00 0.00 0.00 90 1000.2
20260506185857 12 149 11.3 19.3 0.00 0.00 0.00 91 1000.2
20260506185352 12 167 14.5 19.3 0.00 0.00 0.00 92 1000.2
20260506184849 12 178 16.1 20.9 0.00 0.00 0.00 92 1000.2
20260506183856 12 146 11.3 16.1 0.00 0.00 0.00 93 1000.2
20260506183216 12 156 11.3 16.1 0.00 0.00 0.00 91 1000.2
20260506153356 12 155 8.0 12.9 0.00 0.00 0.00 94 1000.2
20260506152854 12 160 4.8 11.3 0.00 0.00 0.00 93 1000.2
20260506152353 12 174 4.8 11.3 0.00 0.00 0.00 93 1000.2
20260506151412 12 211 8.0 12.9 0.00 0.00 0.00 93 1000.2
20260506150848 12 213 8.0 14.5 0.00 0.00 0.00 93 1000.2
20260506145918 12 192 11.3 14.5 0.00 0.00 0.00 93 1000.2
20260506145358 12 161 12.9 16.1 0.00 0.00 0.00 93 1000.2
20260506144400 12 170 11.3 17.7 0.00 0.00 0.00 92 1000.2
20260506143410 12 169 11.3 17.7 0.00 0.00 0.00 91 1000.2
20260506142411 12 171 11.3 17.7 0.00 0.00 0.00 92 1000.2
20260506141412 12 159 12.9 17.7 0.00 0.00 0.00 92 1000.2
20260506140901 12 170 11.3 17.7 0.00 0.00 0.00 92 1000.2
20260506140359 12 150 11.3 17.7 0.00 0.00 0.00 92 1000.2
20260506135410 12 209 9.7 12.9 0.00 0.00 0.00 91 1000.2
20260506134405 12 204 11.3 16.1 0.00 0.00 0.00 91 1000.2
20260506133857 12 196 9.7 14.5 0.00 0.00 0.00 91 1000.2
20260506132910 12 177 11.3 19.3 0.00 0.00 0.00 91 1000.2
20260506131856 12 153 9.7 16.1 0.00 0.00 0.00 91 1000.2
20260506130915 12 141 12.9 19.3 0.00 0.00 0.00 91 1000.2
20260506130359 12 145 12.9 17.7 0.00 0.00 0.00 91 1000.2
20260506125857 12 142 11.3 19.3 0.00 0.00 0.00 91 1000.2
20260506124857 12 134 14.5 19.3 0.00 0.00 0.00 91 1000.2
20260506123908 12 151 11.3 16.1 0.00 0.00 0.00 91 1000.2
20260506122910 12 162 9.7 14.5 0.00 0.00 0.00 90 1000.2
20260506121913 12 193 9.7 12.9 0.00 0.00 0.00 90 1000.2
20260506120859 12 198 9.7 14.5 0.00 0.00 0.00 90 1000.2
20260506120354 12 202 9.7 16.1 0.00 0.00 0.00 90 1000.2
20260506115412 12 181 12.9 16.1 0.00 0.00 0.00 91 1000.2
20260506114904 12 178 12.9 16.1 0.00 0.00 0.00 90 1000.2
20260506113904 12 188 9.7 16.1 0.00 0.00 0.00 91 1000.2
20260506112917 12 177 11.3 14.5 0.00 0.00 0.00 90 1000.2
20260506112359 12 178 11.3 17.7 0.00 0.00 0.00 91 1000.2
20260506111408 12 177 14.5 17.7 0.00 0.00 0.00 90 1000.2
20260506110409 12 207 14.5 19.3 0.00 0.00 0.00 91 1000.2
20260506105856 12 184 14.5 19.3 0.00 0.00 0.00 91 1000.2
20260506104902 12 188 12.9 17.7 0.00 0.00 0.00 91 1000.2
20260506104358 12 192 14.5 17.7 0.00 0.00 0.00 90 1000.2
20260506103857 12 190 11.3 16.1 0.00 0.00 0.00 90 1000.2
20260506102923 13 196 14.5 17.7 0.00 0.00 0.00 90 1000.2
20260506101913 13 204 14.5 17.7 0.00 0.00 0.00 90 1000.2
20260506100907 13 197 14.5 16.1 0.00 0.00 0.00 90 1000.2
20260506095854 13 219 12.9 16.1 0.00 0.00 0.00 90 1000.2
20260506094855 13 210 12.9 17.7 0.00 0.00 0.00 90 1000.2
20260506093909 13 189 11.3 14.5 0.00 0.00 0.00 91 1000.2
20260506093404 13 186 11.3 14.5 0.00 0.00 0.00 91 1000.2
20260506092904 12 202 8.0 14.5 0.00 0.00 0.00 91 1000.2
20260506092402 12 236 8.0 14.5 0.00 0.00 0.00 92 1000.2
20260506091859 12 192 9.7 12.9 0.00 0.00 0.00 93 1000.2
20260506090901 12 47 1.6 4.8 0.00 0.00 0.00 94 1000.2
20260506085906 12 44 0.0 1.6 0.00 0.00 0.00 95 1000.2
20260506085357 11 44 0.0 1.6 0.00 0.00 0.00 94 1000.2
20260506084415 11 44 0.0 3.2 0.00 0.00 0.00 95 1000.2
20260506083401 11 44 0.0 3.2 0.00 0.00 0.00 94 1000.2
20260506082410 11 44 0.0 3.2 0.00 0.00 0.00 94 1000.2
20260506081905 11 44 0.0 3.2 0.00 0.00 0.00 94 1000.2
20260506081359 11 44 1.6 3.2 0.00 0.00 0.00 93 1000.2
20260506080405 12 44 0.0 3.2 0.00 0.00 0.00 93 1000.2
20260506073405 12 44 3.2 6.4 0.00 0.00 0.00 93 1000.2
20260506072409 12 228 0.0 3.2 0.00 0.00 0.00 93 1000.2
20260506071412 12 229 0.0 3.2 0.00 0.00 0.00 93 1000.2
20260506070856 12 228 0.0 3.2 0.00 0.00 0.00 93 1000.2